| time (UTC) | temp C | wind direction | speed KPH | gust KPH | rain 1hr cm | rain 24hr cm | rain mn cm | humidity % | barometer mb |
| 20260508095832 | 15 | 62 | 8.0 | 17.7 | 0.00 | 0.00 | 0.00 | 30 | 1026.0 |
| 20260508094832 | 15 | 111 | 8.0 | 24.1 | 0.00 | 0.00 | 0.00 | 30 | 1026.1 |
| 20260508093831 | 15 | 72 | 9.7 | 17.7 | 0.00 | 0.00 | 0.00 | 29 | 1026.0 |
| 20260508092832 | 15 | 114 | 9.7 | 17.7 | 0.00 | 0.00 | 0.00 | 31 | 1025.8 |
| 20260508091831 | 14 | 111 | 6.4 | 19.3 | 0.00 | 0.00 | 0.00 | 34 | 1026.0 |
| 20260508090829 | 14 | 66 | 9.7 | 19.3 | 0.00 | 0.00 | 0.00 | 30 | 1026.0 |
| 20260508085828 | 14 | 281 | 4.8 | 19.3 | 0.00 | 0.00 | 0.00 | 29 | 1026.2 |
| 20260508084827 | 13 | 71 | 6.4 | 16.1 | 0.00 | 0.00 | 0.00 | 31 | 1026.1 |
| 20260508083827 | 13 | 288 | 3.2 | 17.7 | 0.00 | 0.00 | 0.00 | 30 | 1026.1 |
| 20260508082824 | 13 | 261 | 8.0 | 19.3 | 0.00 | 0.00 | 0.00 | 31 | 1026.1 |
| 20260508081823 | 13 | 344 | 4.8 | 19.3 | 0.00 | 0.00 | 0.00 | 32 | 1026.2 |
| 20260508080822 | 13 | 283 | 3.2 | 19.3 | 0.00 | 0.00 | 0.00 | 33 | 1026.1 |
| 20260508075819 | 12 | 65 | 6.4 | 19.3 | 0.00 | 0.00 | 0.00 | 36 | 1026.1 |
| 20260508074819 | 13 | 285 | 8.0 | 14.5 | 0.00 | 0.00 | 0.00 | 35 | 1026.0 |
| 20260508073819 | 13 | 113 | 8.0 | 16.1 | 0.00 | 0.00 | 0.00 | 35 | 1026.0 |
| 20260508072821 | 12 | 72 | 9.7 | 17.7 | 0.00 | 0.00 | 0.00 | 36 | 1026.0 |
| 20260508071819 | 12 | 259 | 4.8 | 9.7 | 0.00 | 0.00 | 0.00 | 37 | 1025.9 |
| 20260508070819 | 12 | 93 | 3.2 | 16.1 | 0.00 | 0.00 | 0.00 | 38 | 1025.8 |
| 20260508065818 | 11 | 130 | 6.4 | 11.3 | 0.00 | 0.00 | 0.00 | 39 | 1025.7 |
| 20260508064819 | 11 | 90 | 6.4 | 11.3 | 0.00 | 0.00 | 0.00 | 39 | 1025.6 |
| 20260508063818 | 11 | 281 | 6.4 | 11.3 | 0.00 | 0.00 | 0.00 | 40 | 1025.6 |
| 20260508062817 | 11 | 272 | 6.4 | 11.3 | 0.00 | 0.00 | 0.00 | 41 | 1025.5 |
| 20260508061817 | 11 | 68 | 6.4 | 17.7 | 0.00 | 0.00 | 0.00 | 41 | 1025.5 |
| 20260508060817 | 11 | 281 | 8.0 | 14.5 | 0.00 | 0.00 | 0.00 | 43 | 1025.3 |
| 20260508055817 | 10 | 63 | 3.2 | 8.0 | 0.00 | 0.00 | 0.00 | 41 | 1025.2 |
| 20260508054817 | 10 | 110 | 4.8 | 8.0 | 0.00 | 0.00 | 0.00 | 45 | 1025.1 |
| 20260508053804 | 10 | 85 | 0.0 | 8.0 | 0.00 | 0.00 | 0.00 | 49 | 1025.0 |
| 20260508052803 | 8 | 76 | 1.6 | 8.0 | 0.00 | 0.00 | 0.00 | 53 | 1025.1 |
| 20260508051802 | 8 | 142 | 1.6 | 6.4 | 0.00 | 0.00 | 0.00 | 56 | 1024.9 |
| 20260508050803 | 7 | 272 | 1.6 | 3.2 | 0.00 | 0.00 | 0.00 | 59 | 1024.8 |
| 20260508045803 | 7 | 272 | 1.6 | 3.2 | 0.00 | 0.00 | 0.00 | 61 | 1024.7 |
| 20260508044802 | 6 | 272 | 0.0 | 3.2 | 0.00 | 0.00 | 0.00 | 62 | 1024.6 |
| 20260508043802 | 5 | 272 | 1.6 | 3.2 | 0.00 | 0.00 | 0.00 | 67 | 1024.6 |
| 20260508042801 | 4 | 272 | 0.0 | 0.0 | 0.00 | 0.00 | 0.00 | 71 | 1024.6 |
| 20260508041800 | 3 | 272 | 0.0 | 0.0 | 0.00 | 0.00 | 0.00 | 75 | 1024.5 |
| 20260508040758 | 2 | 272 | 0.0 | 0.0 | 0.00 | 0.00 | 0.00 | 78 | 1024.4 |
| 20260508035758 | 0 | 272 | 0.0 | 1.6 | 0.00 | 0.00 | 0.00 | 83 | 1024.3 |
| 20260508034757 | -1 | 272 | 0.0 | 0.0 | 0.00 | 0.00 | 0.00 | 88 | 1024.2 |
| 20260508033759 | -2 | 272 | 0.0 | 0.0 | 0.00 | 0.00 | 0.00 | 89 | 1024.1 |
| 20260508032756 | -2 | 272 | 0.0 | 0.0 | 0.00 | 0.00 | 0.00 | 89 | 1024.0 |
| 20260508031756 | -2 | 272 | 0.0 | 0.0 | 0.00 | 0.00 | 0.00 | 88 | 1023.9 |
| 20260508030757 | -2 | 272 | 0.0 | 0.0 | 0.00 | 0.00 | 0.00 | 87 | 1023.9 |
| 20260508025757 | -2 | 272 | 0.0 | 0.0 | 0.00 | 0.00 | 0.00 | 87 | 1023.8 |
| 20260508024751 | -2 | 272 | 0.0 | 0.0 | 0.00 | 0.00 | 0.00 | 87 | 1023.7 |
| 20260508023750 | -2 | 272 | 0.0 | 0.0 | 0.00 | 0.00 | 0.00 | 85 | 1023.6 |
| 20260508022749 | -2 | 272 | 0.0 | 0.0 | 0.00 | 0.00 | 0.00 | 85 | 1023.5 |
| 20260508021748 | -2 | 272 | 0.0 | 0.0 | 0.00 | 0.00 | 0.00 | 85 | 1023.2 |
| 20260508020751 | -2 | 272 | 0.0 | 0.0 | 0.00 | 0.00 | 0.00 | 84 | 1023.1 |
| 20260508015746 | -2 | 272 | 0.0 | 0.0 | 0.00 | 0.00 | 0.00 | 83 | 1022.9 |
| 20260508014745 | -2 | 272 | 0.0 | 0.0 | 0.00 | 0.00 | 0.00 | 83 | 1022.9 |
| 20260508013744 | -1 | 272 | 0.0 | 1.6 | 0.00 | 0.00 | 0.00 | 83 | 1022.7 |
| 20260508012745 | -1 | 272 | 0.0 | 0.0 | 0.00 | 0.00 | 0.00 | 83 | 1022.6 |
| 20260508011744 | -1 | 272 | 0.0 | 3.2 | 0.00 | 0.00 | 0.00 | 82 | 1022.6 |
| 20260508010742 | -1 | 272 | 0.0 | 3.2 | 0.00 | 0.00 | 0.00 | 83 | 1022.4 |
| 20260508005743 | -1 | 272 | 0.0 | 1.6 | 0.00 | 0.00 | 0.00 | 82 | 1022.3 |
| 20260508004743 | -1 | 272 | 0.0 | 0.0 | 0.00 | 0.00 | 0.00 | 81 | 1022.1 |
| 20260508003744 | -1 | 272 | 0.0 | 1.6 | 0.00 | 0.00 | 0.00 | 81 | 1022.0 |
| 20260508002744 | 0 | 272 | 0.0 | 1.6 | 0.00 | 0.00 | 0.00 | 81 | 1021.9 |
| 20260508001742 | 0 | 272 | 0.0 | 1.6 | 0.00 | 0.00 | 0.00 | 80 | 1021.7 |
| 20260508000742 | 0 | 272 | 0.0 | 1.6 | 0.00 | 0.00 | 0.00 | 80 | 1021.6 |
| 20260507235742 | 0 | 272 | 0.0 | 3.2 | 0.00 | 0.00 | 0.00 | 79 | 1021.4 |
| 20260507234742 | 0 | 272 | 0.0 | 1.6 | 0.00 | 0.00 | 0.00 | 79 | 1021.3 |
| 20260507233741 | 0 | 272 | 0.0 | 3.2 | 0.00 | 0.00 | 0.00 | 77 | 1021.3 |
| 20260507232736 | 0 | 272 | 0.0 | 4.8 | 0.00 | 0.00 | 0.00 | 78 | 1021.1 |
| 20260507231737 | 0 | 258 | 0.0 | 4.8 | 0.00 | 0.00 | 0.00 | 77 | 1021.1 |
| 20260507230737 | 0 | 258 | 0.0 | 3.2 | 0.00 | 0.00 | 0.00 | 77 | 1021.0 |
| 20260507225732 | 0 | 258 | 0.0 | 1.6 | 0.00 | 0.00 | 0.00 | 77 | 1020.9 |
| 20260507224733 | 0 | 258 | 0.0 | 1.6 | 0.00 | 0.00 | 0.00 | 76 | 1020.8 |
| 20260507223731 | 0 | 258 | 0.0 | 0.0 | 0.00 | 0.00 | 0.00 | 76 | 1020.7 |
| 20260507222731 | 0 | 258 | 0.0 | 0.0 | 0.00 | 0.00 | 0.00 | 75 | 1020.6 |
| 20260507221731 | 1 | 258 | 0.0 | 0.0 | 0.00 | 0.00 | 0.00 | 74 | 1020.5 |
| 20260507220731 | 1 | 258 | 0.0 | 1.6 | 0.00 | 0.00 | 0.00 | 73 | 1020.3 |
| 20260507215731 | 1 | 258 | 0.0 | 0.0 | 0.00 | 0.00 | 0.00 | 72 | 1020.2 |
| 20260507214732 | 1 | 258 | 0.0 | 0.0 | 0.00 | 0.00 | 0.00 | 70 | 1020.1 |
| 20260507213731 | 1 | 258 | 0.0 | 1.6 | 0.00 | 0.00 | 0.00 | 69 | 1019.9 |
| 20260507212731 | 2 | 258 | 0.0 | 1.6 | 0.00 | 0.00 | 0.00 | 68 | 1019.9 |
| 20260507211731 | 2 | 258 | 0.0 | 1.6 | 0.00 | 0.00 | 0.00 | 67 | 1019.7 |
| 20260507210730 | 2 | 258 | 0.0 | 1.6 | 0.00 | 0.00 | 0.00 | 67 | 1019.6 |
| 20260507205732 | 3 | 258 | 0.0 | 1.6 | 0.00 | 0.00 | 0.00 | 65 | 1019.4 |
| 20260507204731 | 3 | 258 | 0.0 | 0.0 | 0.00 | 0.00 | 0.00 | 63 | 1019.2 |
| 20260507203730 | 3 | 258 | 0.0 | 0.0 | 0.00 | 0.00 | 0.00 | 61 | 1019.1 |
| 20260507202732 | 4 | 258 | 0.0 | 0.0 | 0.00 | 0.00 | 0.00 | 60 | 1019.0 |
| 20260507201730 | 4 | 258 | 0.0 | 3.2 | 0.00 | 0.00 | 0.00 | 58 | 1018.9 |
| 20260507200731 | 5 | 258 | 0.0 | 1.6 | 0.00 | 0.00 | 0.00 | 57 | 1018.6 |
| 20260507195723 | 5 | 258 | 0.0 | 3.2 | 0.00 | 0.00 | 0.00 | 54 | 1018.5 |
| 20260507194722 | 5 | 258 | 0.0 | 3.2 | 0.00 | 0.00 | 0.00 | 53 | 1018.4 |
| 20260507193722 | 6 | 258 | 0.0 | 6.4 | 0.00 | 0.00 | 0.00 | 52 | 1018.3 |
| 20260507192723 | 6 | 221 | 0.0 | 1.6 | 0.00 | 0.00 | 0.00 | 50 | 1018.1 |
| 20260507191722 | 7 | 221 | 0.0 | 1.6 | 0.00 | 0.00 | 0.00 | 47 | 1017.9 |
| 20260507190722 | 7 | 221 | 0.0 | 1.6 | 0.00 | 0.00 | 0.00 | 44 | 1017.9 |
| 20260507185721 | 8 | 221 | 0.0 | 3.2 | 0.00 | 0.00 | 0.00 | 42 | 1017.6 |
| 20260507184721 | 9 | 221 | 0.0 | 3.2 | 0.00 | 0.00 | 0.00 | 40 | 1017.6 |
| 20260507183720 | 10 | 227 | 0.0 | 4.8 | 0.00 | 0.00 | 0.00 | 36 | 1017.5 |
| 20260507182721 | 10 | 82 | 1.6 | 9.7 | 0.00 | 0.00 | 0.00 | 35 | 1017.4 |
| 20260507181720 | 10 | 94 | 4.8 | 9.7 | 0.00 | 0.00 | 0.00 | 35 | 1017.2 |
| 20260507180721 | 11 | 265 | 3.2 | 11.3 | 0.00 | 0.00 | 0.00 | 34 | 1017.1 |
| 20260507175720 | 11 | 269 | 9.7 | 16.1 | 0.00 | 0.00 | 0.00 | 32 | 1016.9 |
| 20260507174720 | 11 | 220 | 6.4 | 14.5 | 0.00 | 0.00 | 0.00 | 31 | 1016.8 |
| 20260507173719 | 11 | 168 | 3.2 | 11.3 | 0.00 | 0.00 | 0.00 | 31 | 1016.5 |
| 20260507172720 | 11 | 241 | 1.6 | 14.5 | 0.00 | 0.00 | 0.00 | 30 | 1016.5 |
| 20260507171719 | 11 | 209 | 1.6 | 14.5 | 0.00 | 0.00 | 0.00 | 30 | 1016.4 |
| 20260507170719 | 11 | 197 | 3.2 | 16.1 | 0.00 | 0.00 | 0.00 | 29 | 1016.4 |
| 20260507165719 | 12 | 240 | 4.8 | 19.3 | 0.00 | 0.00 | 0.00 | 28 | 1016.3 |
| 20260507164719 | 12 | 282 | 4.8 | 19.3 | 0.00 | 0.00 | 0.00 | 28 | 1016.2 |
| 20260507163718 | 13 | 180 | 6.4 | 16.1 | 0.00 | 0.00 | 0.00 | 27 | 1016.0 |
| 20260507162719 | 13 | 106 | 4.8 | 17.7 | 0.00 | 0.00 | 0.00 | 26 | 1015.8 |
| 20260507161614 | 14 | 55 | 9.7 | 19.3 | 0.00 | 0.00 | 0.00 | 25 | 1015.8 |
| 20260507160614 | 15 | 111 | 6.4 | 20.9 | 0.00 | 0.00 | 0.00 | 25 | 1015.5 |
| 20260507155614 | 15 | 230 | 3.2 | 9.7 | 0.00 | 0.00 | 0.00 | 24 | 1015.4 |
| 20260507154613 | 15 | 248 | 3.2 | 11.3 | 0.00 | 0.00 | 0.00 | 24 | 1015.2 |
| 20260507153613 | 15 | 189 | 6.4 | 11.3 | 0.00 | 0.00 | 0.00 | 23 | 1015.1 |
| 20260507152613 | 15 | 241 | 4.8 | 11.3 | 0.00 | 0.00 | 0.00 | 22 | 1015.2 |
| 20260507151611 | 16 | 283 | 6.4 | 17.7 | 0.00 | 0.00 | 0.00 | 23 | 1015.1 |
| 20260507150612 | 16 | 106 | 3.2 | 16.1 | 0.00 | 0.00 | 0.00 | 22 | 1015.0 |
| 20260507145611 | 16 | 86 | 4.8 | 16.1 | 0.00 | 0.00 | 0.00 | 23 | 1015.1 |
| 20260507144612 | 16 | 226 | 8.0 | 16.1 | 0.00 | 0.00 | 0.00 | 22 | 1014.9 |
| 20260507143611 | 16 | 216 | 9.7 | 19.3 | 0.00 | 0.00 | 0.00 | 20 | 1015.0 |
| 20260507142612 | 16 | 219 | 1.6 | 16.1 | 0.00 | 0.00 | 0.00 | 21 | 1014.9 |
| 20260507141612 | 16 | 221 | 8.0 | 14.5 | 0.00 | 0.00 | 0.00 | 21 | 1014.9 |
| 20260507140612 | 16 | 254 | 4.8 | 11.3 | 0.00 | 0.00 | 0.00 | 21 | 1014.9 |
| 20260507135611 | 16 | 59 | 4.8 | 9.7 | 0.00 | 0.00 | 0.00 | 22 | 1014.9 |
| 20260507134611 | 16 | 197 | 8.0 | 16.1 | 0.00 | 0.00 | 0.00 | 21 | 1014.9 |
| 20260507133610 | 16 | 193 | 6.4 | 14.5 | 0.00 | 0.00 | 0.00 | 20 | 1014.8 |
| 20260507132610 | 16 | 283 | 1.6 | 6.4 | 0.00 | 0.00 | 0.00 | 21 | 1014.9 |
| 20260507131609 | 16 | 179 | 3.2 | 11.3 | 0.00 | 0.00 | 0.00 | 22 | 1014.9 |
| 20260507130609 | 16 | 116 | 6.4 | 14.5 | 0.00 | 0.00 | 0.00 | 22 | 1014.9 |
| 20260507125609 | 16 | 220 | 3.2 | 14.5 | 0.00 | 0.00 | 0.00 | 23 | 1015.0 |
| 20260507124608 | 15 | 214 | 11.3 | 19.3 | 0.00 | 0.00 | 0.00 | 21 | 1014.9 |
| 20260507123609 | 16 | 289 | 6.4 | 17.7 | 0.00 | 0.00 | 0.00 | 25 | 1015.0 |
| 20260507122608 | 15 | 113 | 4.8 | 11.3 | 0.00 | 0.00 | 0.00 | 22 | 1014.9 |
| 20260507121608 | 15 | 56 | 1.6 | 16.1 | 0.00 | 0.00 | 0.00 | 23 | 1014.9 |
| 20260507120608 | 15 | 206 | 4.8 | 16.1 | 0.00 | 0.00 | 0.00 | 24 | 1014.9 |
| 20260507115607 | 15 | 288 | 4.8 | 8.0 | 0.00 | 0.00 | 0.00 | 23 | 1014.9 |
| 20260507114608 | 15 | 195 | 6.4 | 9.7 | 0.00 | 0.00 | 0.00 | 23 | 1014.9 |
| 20260507113609 | 15 | 216 | 6.4 | 14.5 | 0.00 | 0.00 | 0.00 | 26 | 1014.9 |
| 20260507112607 | 15 | 154 | 3.2 | 9.7 | 0.00 | 0.00 | 0.00 | 23 | 1015.0 |
| 20260507111607 | 15 | 151 | 3.2 | 17.7 | 0.00 | 0.00 | 0.00 | 26 | 1015.0 |
| 20260507110606 | 14 | 155 | 1.6 | 14.5 | 0.00 | 0.00 | 0.00 | 23 | 1015.0 |
| 20260507105606 | 15 | 272 | 3.2 | 14.5 | 0.00 | 0.00 | 0.00 | 24 | 1015.1 |
| 20260507104606 | 14 | 217 | 6.4 | 17.7 | 0.00 | 0.00 | 0.00 | 26 | 1015.1 |
| 20260507103606 | 14 | 269 | 9.7 | 19.3 | 0.00 | 0.00 | 0.00 | 26 | 1015.0 |
| 20260507102605 | 14 | 258 | 6.4 | 11.3 | 0.00 | 0.00 | 0.00 | 24 | 1015.0 |
| 20260507101605 | 14 | 237 | 4.8 | 9.7 | 0.00 | 0.00 | 0.00 | 26 | 1015.0 |
| 20260507100605 | 14 | 266 | 4.8 | 16.1 | 0.00 | 0.00 | 0.00 | 26 | 1015.0 |